Location: ??
(34.5816°N, 135.5971°E)
Time: 02:05:39
(UTC+00:00)

Daily predictions for brighter satellites

Satellite Brightness Start Highest point End
(mag) Time Altitude Azimuth Time Altitude Azimuth Time Altitude Azimuth
YAOGAN 6 2.5 08:07:51 10° SSE 08:11:29 75° ENE 08:15:06 10° N
CRYOSAT 2 4.4 08:13:17 10° N 08:18:12 89° E 08:23:06 10° S
Cosmos 2369 Rocket 3.7 08:16:45 10° NNE 08:19:44 14° NE 08:22:42 10° E
Cosmos 44 4.0 08:20:34 10° NNW 08:25:33 38° NE 08:30:33 10° ESE
USA 281 4.5 08:22:31 10° E 08:26:33 17° NE 08:30:35 10° NNE
Meteor 1-25 Rocket 4.5 08:21:19 10° N 08:26:45 47° ENE 08:32:13 10° SSE
Cosmos 1943 Rocket 3.0 08:25:59 10° N 08:30:45 28° ENE 08:35:31 10° ESE
USA 81 4.2 08:27:19 10° N 08:32:28 51° E 08:37:34 10° SSE
X-37B 1.4 08:29:35 10° W 08:32:37 42° NNW 08:35:17 12° NE
H-2A R/B 3.9 08:33:59 10° NE 08:33:59 10° NE 08:34:03 10° NE
Cosmos 1933 3.6 08:31:32 10° SSW 08:35:32 73° W 08:39:35 10° N
Cosmos 1470 Rocket 4.3 08:32:27 10° NNE 08:36:16 30° ENE 08:40:02 10° SE
Cosmos 1515 Rocket 4.0 08:33:35 10° SSE 08:37:37 39° E 08:41:42 10° NNE
FengYun 1-2 T 4.2 08:32:16 10° SSE 08:37:43 62° ENE 08:43:09 10° N
Cosmos 1782 3.0 08:34:06 10° SSE 08:37:53 47° E 08:41:42 10° NNE
Sich 1 3.6 08:33:37 10° NNW 08:37:55 62° W 08:42:10 10° S
Cosmos 1151 Rocket 3.0 08:35:36 10° S 08:39:53 88° W 08:44:10 10° N
NOAA 12 4.2 08:35:22 10° SSE 08:40:42 84° WSW 08:46:03 10° NNW
Cosmos 1602 4.4 08:38:51 10° NNE 08:42:25 33° E 08:45:56 10° SE
CZ-2D R/B 4.4 08:39:42 10° ESE 08:42:40 22° ENE 08:45:39 10° NNE
COSMO-SKYMED 1 2.7 08:42:34 10° NNE 08:46:50 53° E 08:51:03 10° S
BREEZE-M R/B 3.2 08:44:35 10° NW 08:47:19 29° NNE 08:47:50 25° NE
Cosmos 2218 Rocket 3.9 08:41:48 10° N 08:47:55 67° E 08:54:02 10° SSE
Cosmos 1689 Rocket 2.9 08:46:43 21° NE 08:47:57 29° E 08:50:34 10° SSE
Cosmos 2366 rocket 3.9 08:46:06 10° N 08:52:16 69° E 08:58:22 10° SSE
SL-16 R/B 3.6 08:49:09 10° SW 08:54:22 38° WNW 08:59:37 10° N
CENTAUR R/B 3.5 08:50:29 10° SSE 08:54:32 21° ESE 08:56:07 19° E
Cosmos 2297 3.7 08:49:13 10° NNW 08:54:56 83° ENE 09:00:39 10° SSE
Cosmos 489 Rocket 4.5 08:50:17 10° SSW 08:56:29 90° WNW 09:02:44 10° NNE
SAR-Lupe-4 3.5 08:53:36 10° NNE 08:57:10 64° ESE 09:00:43 10° S
Lacrosse 5 rocket 3.7 08:58:53 10° WNW 09:00:11 11° NW 09:01:29 10° NNW
Cosmos 1328 Rocket 4.2 08:56:11 10° SSW 09:00:24 56° W 09:04:41 10° N
Meteor 1-4 Rocket 2.9 08:57:39 10° SSW 09:01:16 66° W 09:04:50 10° N
MOS 1 Rocket 4.1 08:57:23 10° NNE 09:02:28 39° E 09:07:24 10° SSE
Cosmos 1538 Rocket 4.1 08:59:03 10° SSW 09:04:24 83° WNW 09:09:49 10° NNE
SWAS 4.4 09:00:18 10° SSW 09:04:32 67° ESE 09:07:14 21° NNE
Okean-O 3.3 09:02:07 10° SE 09:06:00 31° ENE 09:09:55 10° N
Cosmos 1933 Rocket 3.8 09:02:19 10° N 09:06:37 45° E 09:10:52 10° SSE
CZ-4B R/B 3.0 09:05:19 10° N 09:08:08 32° WNW 09:10:59 10° SW
Okean O Rocket 3.1 09:04:38 10° SSW 09:08:42 39° W 09:12:48 10° NNW
BREEZE-M DEB (TANK) 2.1 09:07:21 10° WSW 09:12:01 82° NNW 09:12:56 42° NE
SAR-Lupe-1 4.2 09:10:52 12° N 09:14:10 75° WNW 09:17:44 10° SSW
IUS-14 SRM-1 4.2 09:11:25 10° WSW 09:14:36 22° S 09:15:43 17° SSE
SL-24 R/B 3.7 09:10:56 10° N 09:14:43 80° WNW 09:18:21 10° SSW
Meteor 2-6 Rocket 4.2 09:11:05 10° S 09:16:38 61° E 09:22:03 10° NNE
NOSS 3-2 (A) 3.2 09:15:11 10° SSW 09:20:33 64° ESE 09:23:32 29° NE
CZ-4 R/B 4.3 09:18:05 10° SSE 09:22:12 73° ENE 09:26:20 10° N
CREW DRAGON DEMO-1 DEB 3.4 09:19:56 10° NW 09:22:51 54° SW 09:23:26 44° S
SL-24 DEB 4.4 09:22:22 10° N 09:27:05 74° W 09:31:44 10° SSW
ERS-2 4.4 09:27:41 10° NNW 09:30:39 23° WNW 09:33:35 10° SW
PSLV R/B 4.3 09:28:26 16° N 09:31:34 63° WNW 09:35:34 10° SSW
Nadezhda 3 Rocket 3.9 09:29:08 10° S 09:35:28 84° E 09:41:52 10° N
USA 215 3.9 09:31:14 18° NNE 09:35:51 48° NW 09:42:04 10° WSW
Lacrosse 4 Rocket 3.2 09:32:57 10° S 09:34:13 18° SSE 09:34:13 18° SSE
CZ-4 R/B 3.2 09:32:45 10° SSE 09:40:31 11° N 09:40:37 10° N
USA 238 DEB 3.5 09:31:40 10° SSW 09:38:08 78° ESE 09:41:10 35° NE
USA 238 3.5 09:31:45 10° SSW 09:38:14 77° ESE 09:41:13 36° NE
Cosmos 1939 Rocket 4.1 09:35:44 10° S 09:39:22 40° W 09:43:03 10° NNW
NOAA 15 4.5 09:34:42 10° SSE 09:39:57 68° ENE 09:45:12 10° N
ATLAS CENTAUR R/B 3.9 09:23:52 10° NW 09:41:28 78° NE 09:45:28 29° SE
DMSP B5D1-3 4.4 09:40:10 41° NNE 09:41:59 74° ESE 09:47:06 10° S
CZ-2C R/B 2.8 09:37:12 10° SSE 09:42:22 83° ENE 09:47:17 10° N
Cosmos 1461 3.9 09:44:49 10° S 09:47:47 38° SSE 09:47:47 38° SSE
Cosmos 1603 4.4 09:44:04 10° SW 09:49:32 52° WNW 09:53:14 20° N
Cosmos 1821 Rocket 3.9 09:46:44 10° N 09:53:01 89° E 09:59:22 10° S
Cosmos 1943 3.8 09:49:57 10° SW 09:55:27 53° WNW 09:58:38 25° N
Meteor 1-5 Rocket 4.2 09:51:51 10° N 09:57:45 87° W 10:03:26 10° S
Meteor 1-27 Rocket 3.9 09:53:04 10° S 09:57:26 54° SSE 09:57:26 54° SSE
Meteor 1-10 Rocket 4.5 09:55:10 10° SSW 10:00:49 66° W 10:04:18 24° N
Cosmos 2369 Rocket 2.3 09:58:41 10° NNW 10:04:21 74° WSW 10:07:29 27° S
USA 267 4.0 10:06:01 35° NNE 10:06:01 35° NNE 10:10:45 10° NNW
Cosmos 1812 4.4 10:03:13 10° SW 10:06:40 32° W 10:06:47 32° WNW
USA 281 3.2 10:03:41 10° SSE 10:10:15 83° WSW 10:16:51 10° NNW
H-2A R/B 3.6 10:06:07 10° S 10:14:37 25° NNW 10:16:41 10° NNW
Cosmos 1943 Rocket 3.7 10:09:30 10° NW 10:14:26 33° WSW 10:19:23 10° SSW
NOSS 3-2 (C) 4.4 10:38:55 10° SW 10:42:47 40° W 10:42:47 40° W
CENTAUR R/B 3.3 10:38:58 10° SW 10:43:22 45° W 10:43:22 45° W
